, CA

(GMT )
Point Mugu

Weather History for KNTD - April, 2014

Change the Weather History Date:

Saturday, April 12, 2014

  Actual Average Record
Temperature  
Mean Temperature 60 °F -  
Max Temperature 66 °F 60 °F 90 °F (2008)
Min Temperature 54 °F 44 °F 42 °F (1997)
Degree Days  
Heating Degree Days 4    
Growing Degree Days 10 (Base 50)    
Moisture  
Dew Point 50 °F    
Average Humidity 71    
Maximum Humidity 81    
Minimum Humidity 58    
Precipitation  
Precipitation 0.00 in - - ()
Sea Level Pressure  
Sea Level Pressure 29.93 in    
Wind  
Wind Speed 7 mph (WNW)    
Max Wind Speed 14 mph    
Max Gust Speed -    
Visibility 7 miles    
Events      
Averages and records for this station are not official NWS values.
T = Trace of Precipitation, MM = Missing Value Source: NWS Daily Summary

Daily Weather History Graph

Daily Weather History Graph

Search for Another Location

Airport or City:

Trip Planner

Search our weather history database for the weather conditions in past years. The results will help you decide how hot, cold, wet, or windy it might be!

Date:

Astronomy

Apr. 12, 2014 Rise Set
Actual Time 6:29 AM PDT 7:25 PM PDT
Civil Twilight 6:03 AM PDT 7:51 PM PDT
Nautical Twilight 5:33 AM PDT 8:21 PM PDT
Astronomical Twilight 5:01 AM PDT 8:53 PM PDT
Moon 5:14 PM PDT (4/12) 4:51 AM PDT (4/12)
Length of Visible Light 13h 47m
Length of Day
12h 56m
Waxing Gibbous, 93% of the Moon is Illuminated
Apr 12
Waxing Gibbous
Apr 15
Full
Apr 22
Last Quarter
Apr 28
New
May 6
First Quarter

Hourly Weather History & Observations

Time (PDT) Temp. Dew Point Humidity Pressure Visibility Wind Dir Wind Speed Gust Speed Precip Events Conditions
12:54 AM 57.9 °F 51.1 °F 78% 29.91 in - NNW 4.6 mph - N/A   Overcast
1:54 AM 57.0 °F 51.1 °F 81% 29.91 in - NW 9.2 mph - N/A   Overcast
2:54 AM 57.0 °F 50.0 °F 77% 29.91 in - NW 5.8 mph - N/A   Mostly Cloudy
3:26 AM 55.9 °F 48.9 °F 77% 29.90 in - NW 8.1 mph - N/A   Scattered Clouds
3:54 AM 55.0 °F 48.9 °F 80% 29.91 in - North 5.8 mph - N/A   Scattered Clouds
4:04 AM 55.0 °F 48.9 °F 80% 29.90 in - North 6.9 mph - N/A   Mostly Cloudy
4:54 AM 55.9 °F 48.9 °F 77% 29.89 in - North 5.8 mph - N/A   Mostly Cloudy
5:54 AM 57.0 °F 50.0 °F 77% 29.89 in - NW 3.5 mph - N/A   Overcast
6:54 AM 57.0 °F 50.0 °F 77% 29.91 in 7.0 mi WNW 3.5 mph - N/A   Mostly Cloudy
7:54 AM 57.9 °F 48.9 °F 72% 29.93 in 7.0 mi NNW 4.6 mph - N/A   Mostly Cloudy
8:54 AM 62.1 °F 50.0 °F 65% 29.93 in 7.0 mi Variable 3.5 mph - N/A   Overcast
9:54 AM 62.1 °F 48.9 °F 62% 29.94 in 7.0 mi Calm Calm - N/A   Overcast
10:54 AM 63.0 °F 50.0 °F 63% 29.96 in 7.0 mi WSW 6.9 mph - N/A   Overcast
11:54 AM 63.0 °F 50.0 °F 63% 29.95 in 7.0 mi WSW 8.1 mph - N/A   Overcast
12:54 PM 64.9 °F 51.1 °F 61% 29.95 in 7.0 mi West 11.5 mph - N/A   Partly Cloudy
1:54 PM 66.0 °F 51.1 °F 59% 29.94 in 7.0 mi WSW 10.4 mph - N/A   Partly Cloudy
2:54 PM 64.0 °F 48.9 °F 58% 29.93 in 7.0 mi West 10.4 mph - N/A   Partly Cloudy
3:54 PM 64.0 °F 50.0 °F 60% 29.91 in 7.0 mi West 10.4 mph - N/A   Partly Cloudy
4:54 PM 63.0 °F 48.9 °F 60% 29.91 in 7.0 mi West 12.7 mph - N/A   Partly Cloudy
5:54 PM 62.1 °F 50.0 °F 65% 29.91 in - West 13.8 mph - N/A   Clear
6:54 PM 59.0 °F 48.9 °F 69% 29.91 in - West 10.4 mph - N/A   Clear
7:54 PM 57.0 °F 48.9 °F 74% 29.92 in - West 9.2 mph - N/A   Clear
8:54 PM 55.9 °F 48.9 °F 77% 29.94 in - West 6.9 mph - N/A   Clear
9:54 PM 55.9 °F 48.9 °F 77% 29.96 in - WNW 6.9 mph - N/A   Clear
10:54 PM 55.0 °F 48.9 °F 80% 29.97 in - Calm Calm - N/A   Clear
11:54 PM 54.0 °F 48.0 °F 80% 29.98 in - Calm Calm - N/A   Clear